Weather History for Rawlins, WY

Change the Weather History Date:

Sunday, May 12, 2013

  Actual Average Record
Temperature  
Mean Temperature 56 °F 48 °F  
Max Temperature 77 °F 62 °F 82 °F (1960)
Min Temperature 35 °F 34 °F 20 °F (1953)
Degree Days  
Heating Degree Days 9 17  
Month to date heating degree days 229 222  
Since 1 July heating degree days 7708 7941  
Cooling Degree Days 0 0  
Month to date cooling degree days 0 0  
Year to date cooling degree days 0 0  
Growing Degree Days 6 (Base 50)    
Moisture  
Dew Point 26 °F    
Average Humidity 39    
Maximum Humidity 64    
Minimum Humidity 14    
Precipitation  
Precipitation 0.00 in 0.05 in 0.44 in (2010)
Month to date precipitation 0.10 0.53  
Year to date precipitation 1.69 3.04  
Sea Level Pressure  
Sea Level Pressure 30.06 in    
Wind  
Wind Speed 9 mph (WNW)    
Max Wind Speed 20 mph    
Max Gust Speed 26 mph    
Visibility 10 miles    
Events      
T = Trace of Precipitation, MM = Missing Value Source: NWS Daily Summary

Daily Weather History Graph

Daily Weather History Graph

Search for Another Location

Airport:

Trip Planner

Search our weather history database for the weather conditions in past years. The results will help you decide how hot, cold, wet, or windy it might be!

Date:

Astronomy

May. 12, 2013 Rise Set
Actual Time 5:51 AM MDT 8:19 PM MDT
Civil Twilight 5:20 AM MDT 8:50 PM MDT
Nautical Twilight 4:41 AM MDT 9:30 PM MDT
Astronomical Twilight 3:57 AM MDT 10:14 PM MDT
Moon 7:48 AM MDT (5/12) 10:48 PM MDT (5/12)
Length of Visible Light 15h 30m
Length of Day
14h 27m
Waxing Crescent, 7% of the Moon is Illuminated
May 12
Waxing Crescent
May 17
First Quarter
May 24
Full
May 31
Last Quarter
Jun 8
New

Hourly Weather History & Observations

Time (MDT) Temp. Windchill Dew Point Humidity Pressure Visibility Wind Dir Wind Speed Gust Speed Precip Events Conditions
12:53 AM 48.9 °F - 26.1 °F 41% 30.09 in 10.0 mi Calm Calm - N/A   Clear
1:53 AM 44.1 °F 42.5 °F 27.0 °F 51% 30.12 in 10.0 mi NW 3.5 mph - N/A   Scattered Clouds
2:53 AM 41.0 °F - 26.1 °F 55% 30.13 in 10.0 mi Calm Calm - N/A   Scattered Clouds
3:53 AM 42.1 °F 39.2 °F 26.1 °F 53% 30.12 in 10.0 mi West 4.6 mph - N/A   Scattered Clouds
4:53 AM 41.0 °F 38.0 °F 26.1 °F 55% 30.14 in 10.0 mi North 4.6 mph - N/A   Clear
5:53 AM 37.9 °F 35.5 °F 26.1 °F 62% 30.15 in 10.0 mi North 3.5 mph - N/A   Clear
6:53 AM 48.0 °F - 28.0 °F 46% 30.13 in 10.0 mi WSW 10.4 mph - N/A   Clear
7:53 AM 54.0 °F - 28.0 °F 37% 30.13 in 10.0 mi WSW 17.3 mph - N/A   Clear
8:53 AM 59.0 °F - 28.0 °F 31% 30.14 in 10.0 mi WSW 13.8 mph - N/A   Clear
9:53 AM 63.0 °F - 28.0 °F 27% 30.10 in 10.0 mi WSW 12.7 mph - N/A   Clear
10:53 AM 66.0 °F - 28.0 °F 24% 30.09 in 10.0 mi West 12.7 mph - N/A   Clear
11:53 AM 68.0 °F - 26.1 °F 21% 30.08 in 10.0 mi West 9.2 mph 19.6 mph N/A   Clear
12:53 PM 71.1 °F - 26.1 °F 19% 30.05 in 10.0 mi NW 12.7 mph 23.0 mph N/A   Partly Cloudy
1:53 PM 71.1 °F - 25.0 °F 18% 30.05 in 10.0 mi WNW 9.2 mph 16.1 mph N/A   Scattered Clouds
2:53 PM 75.0 °F - 24.1 °F 15% 30.03 in 10.0 mi West 15.0 mph 23.0 mph N/A   Scattered Clouds
3:53 PM 75.0 °F - 23.0 °F 14% 30.00 in 10.0 mi WNW 11.5 mph 21.9 mph N/A   Partly Cloudy
4:53 PM 75.9 °F - 24.1 °F 15% 29.99 in 10.0 mi NW 10.4 mph 17.3 mph N/A   Scattered Clouds
5:53 PM 75.0 °F - 25.0 °F 16% 29.99 in 10.0 mi West 12.7 mph - N/A   Partly Cloudy
6:53 PM 73.9 °F - 24.1 °F 16% 29.95 in 10.0 mi NW 10.4 mph - N/A   Clear
7:53 PM 68.0 °F - 26.1 °F 21% 29.95 in 10.0 mi North 9.2 mph - N/A   Partly Cloudy
8:53 PM 57.9 °F - 27.0 °F 31% 29.97 in 10.0 mi North 9.2 mph - N/A   Clear
9:53 PM 55.9 °F - 28.9 °F 36% 29.99 in 10.0 mi NNE 3.5 mph - N/A   Clear
10:53 PM 52.0 °F - 28.9 °F 41% 30.01 in 10.0 mi West 4.6 mph - N/A   Clear
11:53 PM 51.1 °F - 28.9 °F 43% 30.01 in 10.0 mi North 3.5 mph - N/A   Clear